Time,TemperatureF,DewpointF,PressureIn,WindDirection,WindDirectionDegrees,WindSpeedMPH,WindSpeedGustMPH,Humidity,HourlyPrecipIn,Conditions,Clouds,dailyrainin,SolarRadiationWatts/m^2,SoftwareType,DateUTC
2013-02-16 00:02:00,17.0,9.0,-100.00,North,8,6.0,11.0,71,0.00,,,0.00,44.000000,,2013-02-16 00:02:00,
2013-02-16 00:22:00,15.0,7.0,-100.00,North,9,6.0,14.0,70,0.00,,,0.00,2.000000,,2013-02-16 00:22:00,
2013-02-16 00:32:00,15.0,7.0,-100.00,North,9,6.0,14.0,70,0.00,,,0.00,2.000000,,2013-02-16 00:32:00,
2013-02-16 00:42:00,15.0,7.0,-100.00,North,9,6.0,14.0,70,0.00,,,0.00,2.000000,,2013-02-16 00:42:00,
2013-02-16 00:52:00,15.0,7.0,-100.00,North,9,6.0,14.0,70,0.00,,,0.00,2.000000,,2013-02-16 00:52:00,
2013-02-16 01:02:00,15.0,7.0,-100.00,North,9,6.0,14.0,70,0.00,,,0.00,2.000000,,2013-02-16 01:02:00,
2013-02-16 01:32:00,13.0,4.0,-100.00,North,351,6.0,12.0,68,0.00,,,0.00,0.000000,,2013-02-16 01:32:00,
2013-02-16 01:42:00,13.0,4.0,-100.00,North,351,6.0,12.0,68,0.00,,,0.00,0.000000,,2013-02-16 01:42:00,
2013-02-16 01:52:00,13.0,4.0,-100.00,North,351,6.0,12.0,68,0.00,,,0.00,0.000000,,2013-02-16 01:52:00,
2013-02-16 02:01:00,13.0,4.0,-100.00,North,351,6.0,12.0,68,0.00,,,0.00,0.000000,,2013-02-16 02:01:00,
2013-02-16 02:22:00,11.0,1.0,-100.00,NW,321,5.0,11.0,63,0.00,,,0.00,0.000000,,2013-02-16 02:22:00,
2013-02-16 02:32:00,11.0,1.0,-100.00,NW,321,5.0,11.0,63,0.00,,,0.00,0.000000,,2013-02-16 02:32:00,
2013-02-16 02:42:00,11.0,1.0,-100.00,NW,321,5.0,11.0,63,0.00,,,0.00,0.000000,,2013-02-16 02:42:00,
2013-02-16 02:52:00,11.0,1.0,-100.00,NW,321,5.0,11.0,63,0.00,,,0.00,0.000000,,2013-02-16 02:52:00,
2013-02-16 03:01:00,11.0,1.0,-100.00,NW,321,5.0,11.0,63,0.00,,,0.00,0.000000,,2013-02-16 03:01:00,
2013-02-16 03:32:00,8.0,-3.0,-100.00,North,349,3.0,10.0,60,0.00,,,0.00,0.000000,,2013-02-16 03:32:00,
2013-02-16 03:42:00,8.0,-3.0,-100.00,North,349,3.0,10.0,60,0.00,,,0.00,0.000000,,2013-02-16 03:42:00,
2013-02-16 03:52:00,8.0,-3.0,-100.00,North,349,3.0,10.0,60,0.00,,,0.00,0.000000,,2013-02-16 03:52:00,
2013-02-16 04:01:00,8.0,-3.0,-100.00,North,349,3.0,10.0,60,0.00,,,0.00,0.000000,,2013-02-16 04:01:00,
2013-02-16 04:32:00,6.0,-3.0,-100.00,North,1,3.0,7.0,67,0.00,,,0.00,0.000000,,2013-02-16 04:32:00,
2013-02-16 04:42:00,6.0,-3.0,-100.00,North,1,3.0,7.0,67,0.00,,,0.00,0.000000,,2013-02-16 04:42:00,
2013-02-16 04:52:00,6.0,-3.0,-100.00,North,1,3.0,7.0,67,0.00,,,0.00,0.000000,,2013-02-16 04:52:00,
2013-02-16 05:01:00,6.0,-3.0,-100.00,North,1,3.0,7.0,67,0.00,,,0.00,0.000000,,2013-02-16 05:01:00,
2013-02-16 05:32:00,6.0,-1.0,-100.00,WNW,287,3.0,6.0,71,0.00,,,0.00,0.000000,,2013-02-16 05:32:00,
2013-02-16 05:42:00,6.0,-1.0,-100.00,WNW,287,3.0,6.0,71,0.00,,,0.00,0.000000,,2013-02-16 05:42:00,
2013-02-16 05:52:00,6.0,-1.0,-100.00,WNW,287,3.0,6.0,71,0.00,,,0.00,0.000000,,2013-02-16 05:52:00,
2013-02-16 06:02:00,6.0,-1.0,-100.00,WNW,287,3.0,6.0,71,0.00,,,0.00,0.000000,,2013-02-16 06:02:00,
2013-02-16 06:22:00,5.0,-1.0,-100.00,NW,305,3.0,6.0,75,0.00,,,0.00,0.000000,,2013-02-16 06:22:00,
2013-02-16 06:32:00,5.0,-1.0,-100.00,NW,305,3.0,6.0,75,0.00,,,0.00,0.000000,,2013-02-16 06:32:00,
2013-02-16 06:42:00,5.0,-1.0,-100.00,NW,305,3.0,6.0,75,0.00,,,0.00,0.000000,,2013-02-16 06:42:00,
2013-02-16 06:52:00,5.0,-1.0,-100.00,NW,305,3.0,6.0,75,0.00,,,0.00,0.000000,,2013-02-16 06:52:00,
2013-02-16 07:02:00,5.0,-1.0,-100.00,NW,305,3.0,6.0,75,0.00,,,0.00,0.000000,,2013-02-16 07:02:00,
2013-02-16 07:32:00,6.0,0.0,-100.00,NW,321,3.0,7.0,75,0.00,,,0.00,0.000000,,2013-02-16 07:32:00,
2013-02-16 07:42:00,6.0,0.0,-100.00,NW,321,3.0,7.0,75,0.00,,,0.00,0.000000,,2013-02-16 07:42:00,
2013-02-16 07:53:00,6.0,0.0,-100.00,NW,321,3.0,7.0,75,0.00,,,0.00,0.000000,,2013-02-16 07:53:00,
2013-02-16 08:01:00,6.0,0.0,-100.00,NW,321,3.0,7.0,75,0.00,,,0.00,0.000000,,2013-02-16 08:01:00,
2013-02-16 08:32:00,4.0,-2.0,-100.00,NW,309,3.0,6.0,77,0.00,,,0.00,0.000000,,2013-02-16 08:32:00,
2013-02-16 08:42:00,4.0,-2.0,-100.00,NW,309,3.0,6.0,77,0.00,,,0.00,0.000000,,2013-02-16 08:42:00,
2013-02-16 08:52:00,4.0,-2.0,-100.00,NW,309,3.0,6.0,77,0.00,,,0.00,0.000000,,2013-02-16 08:52:00,
2013-02-16 09:01:00,4.0,-2.0,-100.00,NW,309,3.0,6.0,77,0.00,,,0.00,0.000000,,2013-02-16 09:01:00,
2013-02-16 10:32:00,6.0,0.0,-100.00,WNW,303,4.0,7.0,76,-99.99,,,0.00,0.000000,,2013-02-16 10:32:00,
2013-02-16 10:42:00,6.0,0.0,-100.00,WNW,303,4.0,7.0,76,-99.99,,,0.00,0.000000,,2013-02-16 10:42:00,
2013-02-16 10:52:00,6.0,0.0,-100.00,WNW,303,4.0,7.0,76,-99.99,,,0.00,0.000000,,2013-02-16 10:52:00,
2013-02-16 11:02:00,6.0,0.0,-100.00,WNW,303,4.0,7.0,76,-99.99,,,0.00,0.000000,,2013-02-16 11:02:00,
2013-02-16 11:32:00,6.0,0.0,-100.00,NNW,330,4.0,7.0,76,0.00,,,0.00,0.000000,,2013-02-16 11:32:00,
2013-02-16 11:42:00,6.0,0.0,-100.00,NNW,330,4.0,7.0,76,0.00,,,0.00,0.000000,,2013-02-16 11:42:00,
2013-02-16 11:52:00,6.0,0.0,-100.00,NNW,330,4.0,7.0,76,0.00,,,0.00,0.000000,,2013-02-16 11:52:00,
2013-02-16 12:01:00,6.0,0.0,-100.00,NNW,330,4.0,7.0,76,0.00,,,0.00,0.000000,,2013-02-16 12:01:00,
2013-02-16 12:22:00,6.0,1.0,-100.00,NNW,328,2.0,6.0,78,0.00,,,0.00,0.000000,,2013-02-16 12:22:00,
2013-02-16 12:32:00,6.0,1.0,-100.00,NNW,328,2.0,6.0,78,0.00,,,0.00,0.000000,,2013-02-16 12:32:00,
2013-02-16 12:42:00,6.0,1.0,-100.00,NNW,328,2.0,6.0,78,0.00,,,0.00,0.000000,,2013-02-16 12:42:00,
2013-02-16 12:52:00,6.0,1.0,-100.00,NNW,328,2.0,6.0,78,0.00,,,0.00,0.000000,,2013-02-16 12:52:00,
2013-02-16 13:02:00,6.0,1.0,-100.00,NNW,328,2.0,6.0,78,0.00,,,0.00,0.000000,,2013-02-16 13:02:00,
2013-02-16 14:32:00,9.0,3.0,-100.00,NNW,329,2.0,4.0,75,-99.99,,,0.00,46.000000,,2013-02-16 14:32:00,
2013-02-16 14:42:00,9.0,3.0,-100.00,NNW,329,2.0,4.0,75,-99.99,,,0.00,46.000000,,2013-02-16 14:42:00,
2013-02-16 14:52:00,9.0,3.0,-100.00,NNW,329,2.0,4.0,75,-99.99,,,0.00,46.000000,,2013-02-16 14:52:00,
2013-02-16 15:01:00,9.0,3.0,-100.00,NNW,329,2.0,4.0,75,-99.99,,,0.00,46.000000,,2013-02-16 15:01:00,
2013-02-16 15:22:00,12.0,3.0,-100.00,NNW,333,4.0,7.0,65,0.00,,,0.00,148.000000,,2013-02-16 15:22:00,
2013-02-16 15:32:00,12.0,3.0,-100.00,NNW,333,4.0,7.0,65,0.00,,,0.00,148.000000,,2013-02-16 15:32:00,
2013-02-16 15:42:00,12.0,3.0,-100.00,NNW,333,4.0,7.0,65,0.00,,,0.00,148.000000,,2013-02-16 15:42:00,
2013-02-16 15:52:00,12.0,3.0,-100.00,NNW,333,4.0,7.0,65,0.00,,,0.00,148.000000,,2013-02-16 15:52:00,
2013-02-16 16:01:00,12.0,3.0,-100.00,NNW,333,4.0,7.0,65,0.00,,,0.00,148.000000,,2013-02-16 16:01:00,
2013-02-16 16:32:00,17.0,3.0,-100.00,NNE,29,2.0,8.0,54,0.00,,,0.00,238.000000,,2013-02-16 16:32:00,
2013-02-16 16:42:00,17.0,3.0,-100.00,NNE,29,2.0,8.0,54,0.00,,,0.00,238.000000,,2013-02-16 16:42:00,
2013-02-16 16:52:00,17.0,3.0,-100.00,NNE,29,2.0,8.0,54,0.00,,,0.00,238.000000,,2013-02-16 16:52:00,
2013-02-16 17:01:00,17.0,3.0,-100.00,NNE,29,2.0,8.0,54,0.00,,,0.00,238.000000,,2013-02-16 17:01:00,
2013-02-16 17:22:00,21.0,10.0,-100.00,North,356,6.0,14.0,61,0.00,,,0.00,455.000000,,2013-02-16 17:22:00,
2013-02-16 17:32:00,21.0,10.0,-100.00,North,356,6.0,14.0,61,0.00,,,0.00,455.000000,,2013-02-16 17:32:00,
2013-02-16 17:42:00,21.0,10.0,-100.00,North,356,6.0,14.0,61,0.00,,,0.00,455.000000,,2013-02-16 17:42:00,
2013-02-16 17:52:00,21.0,10.0,-100.00,North,356,6.0,14.0,61,0.00,,,0.00,455.000000,,2013-02-16 17:52:00,
2013-02-16 18:02:00,21.0,10.0,-100.00,North,356,6.0,14.0,61,0.00,,,0.00,455.000000,,2013-02-16 18:02:00,
2013-02-16 18:33:00,21.0,4.0,-100.00,NNE,12,7.0,16.0,46,0.00,,,0.00,645.000000,,2013-02-16 18:33:00,
2013-02-16 18:42:00,21.0,4.0,-100.00,NNE,12,7.0,16.0,46,0.00,,,0.00,645.000000,,2013-02-16 18:42:00,
2013-02-16 18:52:00,21.0,4.0,-100.00,NNE,12,7.0,16.0,46,0.00,,,0.00,645.000000,,2013-02-16 18:52:00,
2013-02-16 19:02:00,21.0,4.0,-100.00,NNE,12,7.0,16.0,46,0.00,,,0.00,645.000000,,2013-02-16 19:02:00,
2013-02-16 19:32:00,22.0,8.0,-100.00,NNE,15,7.0,18.0,54,0.00,,,0.00,392.000000,,2013-02-16 19:32:00,
2013-02-16 19:42:00,22.0,8.0,-100.00,NNE,15,7.0,18.0,54,0.00,,,0.00,392.000000,,2013-02-16 19:42:00,
2013-02-16 19:52:00,22.0,8.0,-100.00,NNE,15,7.0,18.0,54,0.00,,,0.00,392.000000,,2013-02-16 19:52:00,
2013-02-16 20:01:00,22.0,8.0,-100.00,NNE,15,7.0,18.0,54,0.00,,,0.00,392.000000,,2013-02-16 20:01:00,
2013-02-16 20:32:00,20.0,4.0,-100.00,NNE,14,8.0,16.0,48,0.00,,,0.00,399.000000,,2013-02-16 20:32:00,
2013-02-16 20:42:00,20.0,4.0,-100.00,NNE,14,8.0,16.0,48,0.00,,,0.00,399.000000,,2013-02-16 20:42:00,
2013-02-16 20:52:00,20.0,4.0,-100.00,NNE,14,8.0,16.0,48,0.00,,,0.00,399.000000,,2013-02-16 20:52:00,
2013-02-16 21:02:00,20.0,4.0,-100.00,NNE,14,8.0,16.0,48,0.00,,,0.00,399.000000,,2013-02-16 21:02:00,
2013-02-16 21:32:00,18.0,3.0,-100.00,NNE,12,7.0,13.0,51,0.00,,,0.00,212.000000,,2013-02-16 21:32:00,
2013-02-16 21:42:00,18.0,3.0,-100.00,NNE,12,7.0,13.0,51,0.00,,,0.00,212.000000,,2013-02-16 21:42:00,
2013-02-16 21:52:00,18.0,3.0,-100.00,NNE,12,7.0,13.0,51,0.00,,,0.00,212.000000,,2013-02-16 21:52:00,
2013-02-16 22:01:00,18.0,3.0,-100.00,NNE,12,7.0,13.0,51,0.00,,,0.00,212.000000,,2013-02-16 22:01:00,
2013-02-16 22:32:00,16.0,5.0,-100.00,NNE,24,6.0,11.0,60,0.00,,,0.00,56.000000,,2013-02-16 22:32:00,
2013-02-16 22:42:00,16.0,5.0,-100.00,NNE,24,6.0,11.0,60,0.00,,,0.00,56.000000,,2013-02-16 22:42:00,
2013-02-16 22:52:00,16.0,5.0,-100.00,NNE,24,6.0,11.0,60,0.00,,,0.00,56.000000,,2013-02-16 22:52:00,
2013-02-16 23:02:00,16.0,5.0,-100.00,NNE,24,6.0,11.0,60,0.00,,,0.00,56.000000,,2013-02-16 23:02:00,
2013-02-16 23:32:00,17.0,5.0,-100.00,NNE,25,5.0,10.0,58,0.00,,,0.00,55.000000,,2013-02-16 23:32:00,
2013-02-16 23:42:00,17.0,5.0,-100.00,NNE,25,5.0,10.0,58,0.00,,,0.00,55.000000,,2013-02-16 23:42:00,
2013-02-16 23:52:00,17.0,5.0,-100.00,NNE,25,5.0,10.0,58,0.00,,,0.00,55.000000,,2013-02-16 23:52:00,